Clearfield, PA

4:26 AM EDT on July 23, 2017 (GMT -0400)
Clearfield-Lawrence

Weather History for KFIG - August, 2013

Change the Weather History Date:

Thursday, August 8, 2013

  Actual Average (KDUJ) Record (KDUJ)
Temperature  
Mean Temperature 70 °F -  
Max Temperature 84 °F 78 °F 96 °F (2001)
Min Temperature 59 °F 59 °F 46 °F (2002)
Cooling Degree Days 6    
Growing Degree Days 20 (Base 50)    
Moisture  
Dew Point 67 °F    
Average Humidity 94    
Maximum Humidity 100    
Minimum Humidity 69    
Precipitation  
Precipitation 0.05 in - - ()
Sea Level Pressure  
Sea Level Pressure 30.01 in    
Wind  
Wind Speed 2 mph (NNW)    
Max Wind Speed 7 mph    
Max Gust Speed -    
Visibility 6 miles    
Events Fog , Rain    
Averages and records for this station are not official NWS values.
T = Trace of Precipitation, MM = Missing Value Source: NWS Daily Summary

Daily Weather History Graph

Daily Weather History Graph

Search for Another Location

Airport or City:

Trip Planner

Search our weather history database for the weather conditions in past years. The results will help you decide how hot, cold, wet, or windy it might be!

Date:

Astronomy

Aug. 08, 2013 Rise Set
Actual Time 6:16 AM EDT 8:21 PM EDT
Civil Twilight 5:46 AM EDT 8:51 PM EDT
Nautical Twilight 5:09 AM EDT 9:28 PM EDT
Astronomical Twilight 4:28 AM EDT 10:08 PM EDT
Moon 8:03 AM EDT (8/8) 8:57 PM EDT (8/8)
Length of Visible Light 15h 05m
Length of Day
14h 04m
Waxing Crescent, 3% of the Moon is Illuminated
Aug 8
Waxing Crescent
Aug 14
First Quarter
Aug 20
Full
Aug 28
Last Quarter
Sep 5
New

Hourly Weather History & Observations

Time (EDT) Temp. Heat Index Dew Point Humidity Pressure Visibility Wind Dir Wind Speed Gust Speed Precip Events Conditions
12:54 AM 61.0 °F - 61.0 °F 100% 30.01 in 0.2 mi Calm Calm - N/A Fog Fog
1:54 AM 59.0 °F - 59.0 °F 100% 30.00 in 0.2 mi North 4.6 mph - N/A Fog Fog
2:54 AM 59.0 °F - 59.0 °F 100% 30.00 in 0.2 mi NE 3.5 mph - 0.01 in Fog Fog
3:54 AM 60.1 °F - 60.1 °F 100% 29.99 in 0.2 mi North 4.6 mph - N/A Fog Fog
4:31 AM 60.8 °F - 60.8 °F 100% 30.02 in 0.5 mi Calm Calm - N/A Fog Fog
4:42 AM 60.8 °F - 60.8 °F 100% 30.02 in 1.5 mi Calm Calm - N/A   Overcast
4:54 AM 60.1 °F - 60.1 °F 100% 30.00 in 0.8 mi North 3.5 mph - N/A   Overcast
5:02 AM 60.8 °F - 60.8 °F 100% 30.02 in 1.0 mi North 3.5 mph - N/A   Overcast
5:12 AM 60.8 °F - 60.8 °F 100% 30.02 in 3.0 mi Calm Calm - N/A   Overcast
5:30 AM 60.8 °F - 60.8 °F 100% 30.03 in 6.0 mi North 3.5 mph - N/A   Overcast
5:54 AM 61.0 °F - 61.0 °F 100% 30.02 in 7.0 mi Calm Calm - N/A   Overcast
6:54 AM 61.0 °F - 61.0 °F 100% 30.02 in 7.0 mi Calm Calm - 0.00 in Rain Light Rain
7:16 AM 60.8 °F - 60.8 °F 100% 30.04 in 1.5 mi NNE 3.5 mph - 0.00 in   Overcast
7:23 AM 60.8 °F - 60.8 °F 100% 30.04 in 0.5 mi Calm Calm - 0.00 in Fog Fog
7:30 AM 62.6 °F - 62.6 °F 100% 30.04 in 2.5 mi North 3.5 mph - 0.00 in   Overcast
7:37 AM 62.6 °F - 62.6 °F 100% 30.04 in 7.0 mi Calm Calm - 0.00 in   Overcast
7:54 AM 62.1 °F - 62.1 °F 100% 30.03 in 8.0 mi Calm Calm - 0.00 in   Overcast
8:54 AM 64.9 °F - 64.9 °F 100% 30.03 in 10.0 mi Calm Calm - N/A   Overcast
9:06 AM 64.4 °F - 64.4 °F 100% 30.04 in 7.0 mi Calm Calm - N/A   Overcast
9:54 AM 68.0 °F - 66.0 °F 93% 30.03 in 10.0 mi Calm Calm - N/A   Overcast
10:06 AM 69.8 °F - 66.2 °F 88% 30.04 in 10.0 mi Calm Calm - N/A   Overcast
10:42 AM 71.6 °F - 68.0 °F 88% 30.04 in 10.0 mi Calm Calm - N/A   Overcast
10:54 AM 71.1 °F - 69.1 °F 93% 30.03 in 10.0 mi Calm Calm - N/A   Overcast
11:45 AM 75.2 °F - 69.8 °F 83% 30.04 in 10.0 mi Calm Calm - N/A   Overcast
11:54 AM 75.0 °F - 70.0 °F 84% 30.02 in 10.0 mi Calm Calm - N/A   Overcast
12:12 PM 75.2 °F - 69.8 °F 83% 30.04 in 10.0 mi Calm Calm - N/A   Mostly Cloudy
12:54 PM 79.0 °F - 71.1 °F 77% 30.02 in 10.0 mi Variable 3.5 mph - N/A   Mostly Cloudy
1:03 PM 78.8 °F - 71.6 °F 78% 30.04 in 10.0 mi South 4.6 mph - N/A   Scattered Clouds
1:54 PM 82.0 °F 86.3 °F 71.1 °F 69% 30.00 in 10.0 mi Calm Calm - N/A   Scattered Clouds
2:45 PM 82.4 °F 87.2 °F 71.6 °F 70% 30.01 in 10.0 mi South 3.5 mph - N/A   Mostly Cloudy
2:54 PM 81.0 °F 84.4 °F 70.0 °F 69% 29.99 in 10.0 mi SSW 6.9 mph - N/A   Mostly Cloudy
3:54 PM 80.1 °F 82.9 °F 69.1 °F 69% 29.96 in 10.0 mi Variable 6.9 mph - N/A   Mostly Cloudy
4:54 PM 79.0 °F - 71.1 °F 77% 29.96 in 10.0 mi South 5.8 mph - N/A   Scattered Clouds
5:54 PM 77.0 °F - 72.0 °F 84% 29.96 in 10.0 mi Variable 4.6 mph - N/A   Partly Cloudy
6:19 PM 77.0 °F - 71.6 °F 83% 29.99 in 10.0 mi Variable 4.6 mph - N/A   Mostly Cloudy
6:54 PM 73.9 °F - 73.0 °F 97% 29.98 in 9.0 mi SW 5.8 mph - 0.01 in Rain Light Rain
7:54 PM 73.0 °F - 71.1 °F 93% 29.98 in 9.0 mi Calm Calm - 0.01 in Rain Light Rain
8:54 PM 71.1 °F - 71.1 °F 100% 29.97 in 1.5 mi Calm Calm - 0.01 in   Partly Cloudy
9:00 PM 71.6 °F - 71.6 °F 100% 29.99 in 2.0 mi Calm Calm - N/A   Partly Cloudy
9:07 PM 71.6 °F - 71.6 °F 100% 29.99 in 10.0 mi Calm Calm - N/A   Clear
9:29 PM 71.6 °F - 71.6 °F 100% 30.00 in 8.0 mi Calm Calm - 0.01 in   Mostly Cloudy
9:54 PM 71.1 °F - 71.1 °F 100% 29.98 in 6.0 mi SSW 3.5 mph - 0.01 in   Scattered Clouds
10:25 PM 69.8 °F - 69.8 °F 100% 30.01 in 1.0 mi Calm Calm - N/A   Mist
10:32 PM 69.8 °F - 69.8 °F 100% 30.00 in 0.8 mi Calm Calm - N/A   Mist
10:35 PM 69.8 °F - 69.8 °F 100% 30.00 in 1.8 mi Calm Calm - N/A   Partly Cloudy
10:42 PM 69.8 °F - 69.8 °F 100% 30.00 in 8.0 mi Calm Calm - N/A   Partly Cloudy
10:54 PM 71.1 °F - 70.0 °F 96% 29.97 in 10.0 mi Calm Calm - N/A   Clear
11:35 PM 69.8 °F - 69.8 °F 100% 29.99 in 2.0 mi Calm Calm - 0.00 in   Mostly Cloudy
11:38 PM 69.8 °F - 69.8 °F 100% 29.98 in 0.8 mi Calm Calm - 0.00 in   Mostly Cloudy
11:47 PM 69.8 °F - 69.8 °F 100% 29.98 in 0.5 mi Calm Calm - 0.00 in Fog Fog
11:52 PM 69.8 °F - 69.8 °F 100% 29.98 in 1.0 mi Calm Calm - 0.00 in Rain Light Rain
11:54 PM 70.0 °F - 70.0 °F 100% 29.96 in 1.5 mi Calm Calm - 0.00 in Rain Light Rain
11:59 PM 69.8 °F - 69.8 °F 100% 29.98 in 3.0 mi Calm Calm - 0.00 in Rain Light Rain